Location: Cahas Mountain Overlook
(37.0833°N, 80.1000°W)
Time: 18:10:31
(UTC-04:00)

Hubble Space Telescope - Visible Passes

Search period start: 04 October 2023 00:00
Search period end: 14 October 2023 00:00
Orbit: 521 x 525 km, 28.5° (Epoch: 04 October)

Date Brightness Start Highest point End Pass type
(mag) Time Alt. Az. Time Alt. Az. Time Alt. Az.
05 Oct 3.1 20:33:24 10° S 20:34:16 12° S 20:34:16 12° S visible
06 Oct 2.8 20:17:18 10° SSW 20:19:31 14° SSE 20:19:41 14° SSE visible
07 Oct 2.7 20:01:19 10° SSW 20:03:49 16° SSE 20:05:02 14° SE visible
08 Oct 2.7 19:45:24 10° SSW 19:48:06 17° SSE 19:50:20 12° SE visible
08 Oct 3.6 21:25:08 10° SW 21:25:21 11° SW 21:25:21 11° SW visible
09 Oct 2.6 19:29:30 10° SW 19:32:23 19° S 19:35:16 10° ESE visible
09 Oct 3.2 21:09:25 10° SW 21:10:35 16° SW 21:10:35 16° SW visible
10 Oct 2.6 19:13:38 10° SW 19:16:39 20° S 19:19:40 10° ESE visible
10 Oct 2.7 20:53:44 10° WSW 20:55:47 20° SSW 20:55:47 20° SSW visible
11 Oct 2.4 20:38:01 10° WSW 20:40:58 22° SSW 20:40:58 22° SSW visible
12 Oct 2.4 20:22:20 10° WSW 20:25:28 22° S 20:26:09 21° S visible
13 Oct 2.6 20:06:39 10° WSW 20:09:42 20° S 20:11:21 16° SSE visible
